Anaktuvuk Pass, AK

9:59 AM AKDT on June 27, 2017 (GMT -0800)
Anaktuvuk Pass

Weather History for PAKP - November, 2013

Change the Weather History Date:

Monday, November 4, 2013

  Actual Average Record
Temperature  
Mean Temperature 25 °F -  
Max Temperature 26 °F 6 °F 26 °F (2013)
Min Temperature 23 °F -1 °F -23 °F (2005)
Degree Days  
Heating Degree Days 40    
Moisture  
Dew Point 18 °F    
Average Humidity 72    
Maximum Humidity 74    
Minimum Humidity 63    
Precipitation  
Precipitation 0.00 in - - ()
Sea Level Pressure  
Sea Level Pressure 29.33 in    
Wind  
Wind Speed 13 mph (SSW)    
Max Wind Speed 20 mph    
Max Gust Speed 26 mph    
Visibility 7 miles    
Events      
Averages and records for this station are not official NWS values.
T = Trace of Precipitation, MM = Missing Value Source: NWS Daily Summary

Daily Weather History Graph

Daily Weather History Graph

Search for Another Location

Airport or City:

Trip Planner

Search our weather history database for the weather conditions in past years. The results will help you decide how hot, cold, wet, or windy it might be!

Date:

Astronomy

Nov. 04, 2013 Rise Set
Actual Time 9:34 AM AKST 4:05 PM AKST
Civil Twilight 8:25 AM AKST 5:14 PM AKST
Nautical Twilight 7:16 AM AKST 6:22 PM AKST
Astronomical Twilight 6:11 AM AKST 7:27 PM AKST
Moon 11:47 AM AKST (11/4) 4:25 PM AKST (11/4)
Length of Visible Light 8h 48m
Length of Day
6h 31m
New Moon, 2% of the Moon is Illuminated
Nov 4
New Moon
Nov 9
First Quarter
Nov 17
Full
Nov 25
Last Quarter
Dec 2
New

Hourly Weather History & Observations

Time (AKST) Temp. Windchill Dew Point Humidity Pressure Visibility Wind Dir Wind Speed Gust Speed Precip Events Conditions
12:16 AM 24.8 °F 12.4 °F 17.6 °F 74% 29.36 in 4.0 mi SW 15.0 mph 20.7 mph N/A   Overcast
12:36 AM 24.8 °F 11.9 °F 17.6 °F 74% 29.36 in 2.0 mi WSW 16.1 mph 26.5 mph N/A   Overcast
12:56 AM 24.8 °F 11.1 °F 17.6 °F 74% 29.36 in 3.0 mi SW 18.4 mph 25.3 mph N/A   Overcast
1:16 AM 24.8 °F 12.4 °F 17.6 °F 74% 29.36 in 3.0 mi SW 15.0 mph 20.7 mph N/A   Overcast
1:36 AM 24.8 °F 10.7 °F 17.6 °F 74% 29.35 in 5.0 mi SW 19.6 mph 23.0 mph N/A   Overcast
1:56 AM 24.8 °F 11.5 °F 17.6 °F 74% 29.36 in 5.0 mi SW 17.3 mph 24.2 mph N/A   Overcast
2:16 AM 24.8 °F 13.4 °F 17.6 °F 74% 29.36 in 8.0 mi SW 12.7 mph 24.2 mph N/A   Overcast
2:36 AM 24.8 °F 11.5 °F 17.6 °F 74% 29.35 in 10.0 mi SW 17.3 mph 21.9 mph N/A   Overcast
2:56 AM 24.8 °F 12.4 °F 17.6 °F 74% 29.34 in 10.0 mi SW 15.0 mph 21.9 mph N/A   Overcast
3:16 AM 24.8 °F 13.4 °F 17.6 °F 74% 29.34 in 10.0 mi SW 12.7 mph 23.0 mph N/A   Overcast
3:36 AM 24.8 °F 11.5 °F 17.6 °F 74% 29.34 in 10.0 mi SW 17.3 mph 21.9 mph N/A   Overcast
3:56 AM 24.8 °F 11.1 °F 17.6 °F 74% 29.33 in 10.0 mi SW 18.4 mph 24.2 mph N/A   Mostly Cloudy
4:16 AM 24.8 °F 11.5 °F 17.6 °F 74% 29.34 in 10.0 mi SW 17.3 mph 25.3 mph N/A   Mostly Cloudy
4:36 AM 26.6 °F 15.2 °F 17.6 °F 69% 29.34 in 10.0 mi WSW 13.8 mph 21.9 mph N/A   Overcast
4:56 AM 24.8 °F 11.9 °F 17.6 °F 74% 29.34 in 10.0 mi SW 16.1 mph 21.9 mph N/A   Overcast
5:16 AM 24.8 °F 14.0 °F 17.6 °F 74% 29.34 in 9.0 mi SSW 11.5 mph 18.4 mph N/A   Overcast
5:36 AM 26.6 °F 16.2 °F 17.6 °F 69% 29.34 in 10.0 mi SW 11.5 mph - N/A   Overcast
5:56 AM 24.8 °F 14.0 °F 17.6 °F 74% 29.34 in 10.0 mi SSW 11.5 mph 18.4 mph N/A   Overcast
6:16 AM 24.8 °F 13.4 °F 17.6 °F 74% 29.33 in 10.0 mi SSW 12.7 mph 17.3 mph N/A   Overcast
6:36 AM 24.8 °F 12.9 °F 17.6 °F 74% 29.32 in 10.0 mi SSW 13.8 mph 20.7 mph N/A   Overcast
6:56 AM 24.8 °F 11.5 °F 17.6 °F 74% 29.32 in 10.0 mi SSW 17.3 mph 21.9 mph N/A   Overcast
7:16 AM 26.6 °F 15.2 °F 17.6 °F 69% 29.32 in 10.0 mi SSW 13.8 mph - N/A   Overcast
7:36 AM 26.6 °F 15.7 °F 17.6 °F 69% 29.32 in 10.0 mi SSW 12.7 mph 18.4 mph N/A   Overcast
7:56 AM 26.6 °F 14.3 °F 17.6 °F 69% 29.31 in 10.0 mi SSW 16.1 mph 20.7 mph N/A   Overcast
8:16 AM 26.6 °F 15.7 °F 17.6 °F 69% 29.31 in 10.0 mi SW 12.7 mph 20.7 mph N/A   Overcast
8:36 AM 26.6 °F 16.2 °F 17.6 °F 69% 29.31 in 10.0 mi SSW 11.5 mph - N/A   Overcast
8:56 AM 26.6 °F 15.2 °F 17.6 °F 69% 29.31 in 10.0 mi SW 13.8 mph 19.6 mph N/A   Overcast
9:16 AM 26.6 °F 15.2 °F 17.6 °F 69% 29.32 in 9.0 mi SW 13.8 mph - N/A   Overcast
9:36 AM 26.6 °F 16.8 °F 17.6 °F 69% 29.32 in 10.0 mi WSW 10.4 mph - N/A   Overcast
9:56 AM 26.6 °F 17.5 °F 17.6 °F 69% 29.32 in 8.0 mi WSW 9.2 mph - N/A   Overcast
10:16 AM 26.6 °F 19.1 °F 17.6 °F 69% 29.33 in 8.0 mi SW 6.9 mph - N/A   Overcast
10:36 AM 26.6 °F 18.2 °F 19.4 °F 74% 29.32 in 8.0 mi SE 8.1 mph - N/A   Overcast
10:56 AM 26.6 °F 19.1 °F 17.6 °F 69% 29.32 in 10.0 mi NNE 6.9 mph - N/A   Overcast
11:16 AM 26.6 °F 18.2 °F 19.4 °F 74% 29.31 in 8.0 mi NE 8.1 mph - N/A   Overcast
11:36 AM 26.6 °F 19.1 °F 19.4 °F 74% 29.31 in 5.0 mi SW 6.9 mph - N/A   Overcast
11:56 AM 26.6 °F 16.2 °F 19.4 °F 74% 29.31 in 4.0 mi SW 11.5 mph - N/A   Overcast
12:16 PM 26.6 °F 15.7 °F 19.4 °F 74% 29.31 in 3.0 mi SW 12.7 mph - N/A   Overcast
12:36 PM 26.6 °F 20.0 °F 19.4 °F 74% 29.31 in 2.5 mi SSW 5.8 mph - N/A   Overcast
12:56 PM 26.6 °F 21.2 °F 19.4 °F 74% 29.32 in 3.0 mi East 4.6 mph - N/A   Overcast
1:16 PM 26.6 °F 19.1 °F 19.4 °F 74% 29.31 in 3.0 mi North 6.9 mph - N/A   Overcast
1:36 PM 26.6 °F 20.0 °F 19.4 °F 74% 29.31 in 7.0 mi ESE 5.8 mph - N/A   Overcast
1:56 PM 26.6 °F 22.6 °F 19.4 °F 74% 29.31 in 10.0 mi ESE 3.5 mph - N/A   Overcast
2:16 PM 26.6 °F - 19.4 °F 74% 29.31 in 8.0 mi Calm Calm - N/A   Overcast
2:36 PM 26.6 °F 22.6 °F 19.4 °F 74% 29.31 in 5.0 mi South 3.5 mph - N/A   Mostly Cloudy
2:56 PM 26.6 °F 21.2 °F 19.4 °F 74% 29.31 in 5.0 mi SSW 4.6 mph - N/A   Overcast
3:16 PM 26.6 °F - 19.4 °F 74% 29.31 in 2.0 mi Calm Calm - N/A   Overcast
3:36 PM 26.6 °F - 19.4 °F 74% 29.31 in 1.8 mi Calm Calm - N/A   Overcast
10:36 PM 26.6 °F 21.2 °F 19.4 °F 74% 29.36 in 0.8 mi ESE 4.6 mph - N/A   Overcast
10:56 PM 24.8 °F 14.6 °F 17.6 °F 74% 29.36 in 1.0 mi ENE 10.4 mph - N/A   Overcast
11:16 PM 24.8 °F 12.4 °F 15.8 °F 69% 29.38 in 1.2 mi NE 15.0 mph - N/A   Overcast
11:36 PM 24.8 °F 17.9 °F 15.8 °F 69% 29.40 in 1.5 mi North 5.8 mph - N/A   Overcast
11:56 PM 23.0 °F 15.8 °F 12.2 °F 63% 29.41 in 3.0 mi North 5.8 mph - N/A   Overcast